EJU762 EDDF-LGAV

Flight info

Callsign EJU762
Flight time N/A
Altitude 35000
Route CINDY8S/18 CINDY Z74 LAMPU DCT NOMBO Y161 MAH L173 OTT M867 RADIZ DCT NEMEK DCT GLOMY DCT INLOT DCT PINDO UL607 XORKI
Aircraft A21N/M-SDE3FGHIRWY/LB1

Departure

Time N/A
Airport Frankfurt Main Airport (EDDF)

Arrival

Time 2026-05-03 21:31
Airport Athens Eleftherios Venizelos International Airport (LGAV)
Time Latitude Longitude Altitude Speed Heading
2026-05-03 20:15 48.98921 10.19387 25803 ft 428 kts 139°
2026-05-03 20:15 48.96701 10.22507 26203 ft 430 kts 139°
2026-05-03 20:15 48.94484 10.25633 26586 ft 432 kts 139°
2026-05-03 20:15 48.92285 10.28741 26935 ft 434 kts 139°
2026-05-03 20:16 48.90058 10.31885 27276 ft 436 kts 139°
2026-05-03 20:16 48.87829 10.35015 27619 ft 438 kts 139°
2026-05-03 20:16 48.85554 10.38196 27964 ft 439 kts 139°
2026-05-03 20:16 48.83042 10.41777 28357 ft 441 kts 137°
2026-05-03 20:17 48.78867 10.48389 28925 ft 446 kts 135°
2026-05-03 20:17 48.75131 10.54376 29500 ft 447 kts 135°
2026-05-03 20:17 48.71165 10.60713 30276 ft 444 kts 135°
2026-05-03 20:17 48.67230 10.66985 30927 ft 443 kts 136°
2026-05-03 20:18 48.63321 10.73220 31524 ft 443 kts 136°
2026-05-03 20:18 48.59262 10.79662 32110 ft 442 kts 136°
2026-05-03 20:18 48.55463 10.85729 32623 ft 442 kts 136°
2026-05-03 20:18 48.51442 10.92166 33151 ft 441 kts 136°
2026-05-03 20:19 48.47488 10.98444 33573 ft 441 kts 136°
2026-05-03 20:19 48.43378 11.04850 33894 ft 444 kts 136°
2026-05-03 20:19 48.39253 11.11255 34233 ft 446 kts 136°
2026-05-03 20:19 48.35102 11.17692 34536 ft 448 kts 136°
2026-05-03 20:20 48.31039 11.24248 34782 ft 451 kts 131°
2026-05-03 20:20 48.27698 11.31478 34985 ft 456 kts 121°
2026-05-03 20:20 48.25138 11.39727 34987 ft 458 kts 111°
2026-05-03 20:21 48.22131 11.57062 34990 ft 458 kts 104°
2026-05-03 20:21 48.19068 11.73900 34977 ft 457 kts 113°
2026-05-03 20:21 48.16309 11.81994 34983 ft 455 kts 124°
2026-05-03 20:22 48.12752 11.88892 34985 ft 453 kts 134°
2026-05-03 20:22 48.04070 12.00951 34981 ft 454 kts 139°
2026-05-03 20:23 47.95214 12.13063 34982 ft 454 kts 139°
2026-05-03 20:23 47.86536 12.24184 35020 ft 454 kts 141°
2026-05-03 20:24 47.77360 12.35634 35050 ft 455 kts 141°
2026-05-03 20:24 47.68125 12.47109 35071 ft 455 kts 141°
2026-05-03 20:25 47.59186 12.58748 35091 ft 456 kts 137°
2026-05-03 20:25 47.50394 12.71224 35106 ft 456 kts 137°
2026-05-03 20:26 47.41626 12.83599 35109 ft 456 kts 137°
2026-05-03 20:26 47.32717 12.96081 35115 ft 456 kts 137°
2026-05-03 20:27 47.23936 13.08312 35134 ft 456 kts 137°
2026-05-03 20:27 47.15068 13.20609 35141 ft 456 kts 137°
2026-05-03 20:28 47.06054 13.33051 35174 ft 456 kts 137°
2026-05-03 20:28 46.97080 13.45379 35194 ft 457 kts 137°
2026-05-03 20:29 46.88236 13.57462 35168 ft 457 kts 137°
2026-05-03 20:29 46.79314 13.69557 35164 ft 457 kts 137°
2026-05-03 20:30 46.70319 13.81765 35141 ft 456 kts 137°
2026-05-03 20:30 46.61238 13.94007 35141 ft 457 kts 137°
2026-05-03 20:31 46.52204 14.06122 35131 ft 457 kts 137°
2026-05-03 20:31 46.43133 14.18231 35126 ft 457 kts 137°
2026-05-03 20:32 46.34042 14.30309 35101 ft 457 kts 137°
2026-05-03 20:32 46.24877 14.42429 35082 ft 458 kts 137°
2026-05-03 20:33 46.15704 14.54504 35076 ft 457 kts 137°
2026-05-03 20:33 46.06568 14.66473 35086 ft 460 kts 137°
2026-05-03 20:34 45.97374 14.78501 35089 ft 461 kts 137°
2026-05-03 20:34 45.88468 14.90056 35091 ft 460 kts 137°
2026-05-03 20:35 45.79478 15.01614 35098 ft 463 kts 137°
2026-05-03 20:35 45.70176 15.13569 35093 ft 464 kts 137°
2026-05-03 20:36 45.61634 15.24497 35115 ft 463 kts 137°
2026-05-03 20:36 45.56806 15.30643 35090 ft 464 kts 137°
2026-05-03 20:37 45.51871 15.36730 35084 ft 465 kts 138°
2026-05-03 20:37 45.46951 15.42742 35084 ft 465 kts 137°
2026-05-03 20:38 45.41937 15.48718 35160 ft 465 kts 139°
2026-05-03 20:38 45.39454 15.51719 35261 ft 465 kts 137°
2026-05-03 20:38 45.36984 15.54772 35137 ft 465 kts 137°
2026-05-03 20:39 45.28933 15.64680 35089 ft 466 kts 137°
2026-05-03 20:39 45.19348 15.76359 35075 ft 467 kts 138°
2026-05-03 20:40 45.09695 15.88012 35082 ft 468 kts 138°
2026-05-03 20:40 44.99984 15.99668 35087 ft 468 kts 138°
2026-05-03 20:41 44.90313 16.11220 35093 ft 469 kts 138°
2026-05-03 20:41 44.80673 16.22628 35107 ft 470 kts 138°
2026-05-03 20:42 44.70836 16.34257 35123 ft 475 kts 138°
2026-05-03 20:42 44.65837 16.40155 35262 ft 480 kts 138°
2026-05-03 20:42 44.60794 16.46090 35398 ft 485 kts 138°
2026-05-03 20:43 44.50624 16.58010 35540 ft 494 kts 138°
2026-05-03 20:43 44.45404 16.64109 35699 ft 495 kts 137°
2026-05-03 20:43 44.40312 16.70061 35976 ft 493 kts 138°
2026-05-03 20:43 44.35169 16.76071 36195 ft 493 kts 138°
2026-05-03 20:44 44.30049 16.82022 36378 ft 492 kts 138°
2026-05-03 20:44 44.24868 16.88020 36550 ft 492 kts 138°
2026-05-03 20:44 44.19717 16.93967 36671 ft 493 kts 137°
2026-05-03 20:44 44.14494 16.99988 36827 ft 493 kts 137°
2026-05-03 20:45 44.09432 17.05807 36992 ft 492 kts 137°
2026-05-03 20:45 44.04298 17.11696 37136 ft 492 kts 137°
2026-05-03 20:45 43.99122 17.17619 37246 ft 492 kts 137°
2026-05-03 20:45 43.93979 17.23487 37369 ft 492 kts 137°
2026-05-03 20:46 43.88842 17.29332 37483 ft 492 kts 137°
2026-05-03 20:46 43.78496 17.41020 37560 ft 493 kts 137°
2026-05-03 20:47 43.68146 17.52708 37397 ft 493 kts 137°
2026-05-03 20:47 43.58072 17.64032 37517 ft 495 kts 137°
2026-05-03 20:48 43.48253 17.75427 37666 ft 494 kts 136°
2026-05-03 20:48 43.38148 17.87258 37851 ft 494 kts 136°
2026-05-03 20:49 43.27927 17.99122 37988 ft 494 kts 136°
2026-05-03 20:49 43.17828 18.10790 38083 ft 494 kts 136°
2026-05-03 20:50 43.07647 18.22495 38245 ft 493 kts 136°
2026-05-03 20:50 42.97424 18.34197 38357 ft 493 kts 136°
2026-05-03 20:51 42.87266 18.45759 38419 ft 494 kts 136°
2026-05-03 20:51 42.77020 18.57330 38456 ft 494 kts 136°
2026-05-03 20:52 42.66850 18.68827 38444 ft 495 kts 136°
2026-05-03 20:52 42.61691 18.74662 38303 ft 498 kts 137°
2026-05-03 20:52 42.56433 18.80576 38132 ft 501 kts 137°
2026-05-03 20:53 42.46050 18.92192 38587 ft 492 kts 136°
2026-05-03 20:53 42.35768 19.03659 38641 ft 492 kts 136°
2026-05-03 20:54 42.25428 19.15130 38706 ft 493 kts 136°
2026-05-03 20:54 42.09873 19.32288 38820 ft 494 kts 136°
2026-05-03 20:55 41.99471 19.43682 39352 ft 483 kts 136°
2026-05-03 20:55 41.94339 19.49223 39082 ft 493 kts 137°
2026-05-03 20:55 41.89038 19.54656 39117 ft 494 kts 138°
2026-05-03 20:56 41.78488 19.65356 39121 ft 494 kts 139°
2026-05-03 20:56 41.67961 19.76155 38785 ft 502 kts 139°
2026-05-03 20:57 41.62450 19.81776 38256 ft 505 kts 139°
2026-05-03 20:57 41.57034 19.87279 37724 ft 507 kts 139°
2026-05-03 20:57 41.51517 19.92874 37208 ft 508 kts 139°
2026-05-03 20:57 41.46063 19.98395 37125 ft 509 kts 139°
2026-05-03 20:58 41.34922 20.09637 37113 ft 512 kts 139°
2026-05-03 20:58 41.23890 20.20722 37102 ft 512 kts 139°
2026-05-03 20:59 41.12714 20.31902 37104 ft 515 kts 139°
2026-05-03 20:59 41.01550 20.43021 37116 ft 516 kts 139°
2026-05-03 21:00 40.92205 20.52293 37099 ft 516 kts 139°
2026-05-03 21:00 40.79294 20.64998 37114 ft 516 kts 139°
2026-05-03 21:01 40.68128 20.76014 37119 ft 517 kts 139°
2026-05-03 21:01 40.56906 20.86998 37129 ft 519 kts 140°
2026-05-03 21:02 40.45844 20.98152 37107 ft 508 kts 134°
2026-05-03 21:02 40.35630 21.09972 37120 ft 505 kts 134°
2026-05-03 21:03 40.25417 21.21717 37140 ft 505 kts 135°
2026-05-03 21:03 40.15155 21.33450 37146 ft 506 kts 134°
2026-05-03 21:04 40.04923 21.45091 37136 ft 505 kts 134°
2026-05-03 21:04 39.94952 21.56394 37129 ft 505 kts 135°
2026-05-03 21:05 39.85069 21.67557 37103 ft 505 kts 135°
2026-05-03 21:05 39.74815 21.79098 37123 ft 505 kts 135°
2026-05-03 21:06 39.64600 21.90545 37126 ft 506 kts 135°
2026-05-03 21:06 39.54210 22.02132 36611 ft 496 kts 135°
2026-05-03 21:07 39.49029 22.07896 36114 ft 499 kts 135°
2026-05-03 21:07 39.43822 22.13675 35646 ft 501 kts 135°
2026-05-03 21:07 39.38627 22.19435 35255 ft 504 kts 135°
2026-05-03 21:07 39.33324 22.25293 34873 ft 506 kts 135°
2026-05-03 21:08 39.28027 22.31131 34386 ft 508 kts 135°
2026-05-03 21:08 39.22751 22.36942 33185 ft 514 kts 135°
2026-05-03 21:08 39.17333 22.42889 31699 ft 522 kts 135°
2026-05-03 21:08 39.11821 22.48932 30130 ft 528 kts 135°
2026-05-03 21:09 39.06359 22.54902 29197 ft 516 kts 135°
2026-05-03 21:09 39.01046 22.60703 28301 ft 506 kts 135°
2026-05-03 21:09 38.95832 22.66386 27397 ft 496 kts 136°
2026-05-03 21:09 38.90717 22.71981 26478 ft 487 kts 136°
2026-05-03 21:10 38.85693 22.77420 25595 ft 477 kts 136°
2026-05-03 21:10 38.80684 22.82819 24748 ft 466 kts 136°
2026-05-03 21:10 38.75856 22.88032 23843 ft 458 kts 136°
2026-05-03 21:10 38.71056 22.93212 22893 ft 449 kts 136°
2026-05-03 21:11 38.66390 22.98241 22014 ft 440 kts 137°
2026-05-03 21:11 38.61830 23.03144 21163 ft 432 kts 137°
2026-05-03 21:11 38.57335 23.07970 20301 ft 424 kts 137°
2026-05-03 21:11 38.52848 23.12780 19445 ft 416 kts 137°
2026-05-03 21:12 38.48533 23.17398 18590 ft 409 kts 137°
2026-05-03 21:12 38.44267 23.21953 17740 ft 403 kts 137°
2026-05-03 21:12 38.40639 23.25820 17016 ft 397 kts 138°
2026-05-03 21:12 38.38514 23.28080 16594 ft 394 kts 137°
2026-05-03 21:13 38.36400 23.30331 16163 ft 391 kts 138°
2026-05-03 21:13 38.34320 23.32542 15732 ft 388 kts 138°
2026-05-03 21:13 38.32240 23.34750 15300 ft 386 kts 138°
2026-05-03 21:13 38.30143 23.36976 14857 ft 383 kts 138°
2026-05-03 21:14 38.28109 23.39134 14432 ft 381 kts 138°
2026-05-03 21:14 38.26046 23.41319 13996 ft 378 kts 138°
2026-05-03 21:14 38.24033 23.43450 13582 ft 376 kts 138°
2026-05-03 21:14 38.21997 23.45604 13165 ft 373 kts 138°
2026-05-03 21:15 38.20000 23.47715 12747 ft 370 kts 138°
2026-05-03 21:15 38.17938 23.49672 12299 ft 370 kts 150°
2026-05-03 21:15 38.15475 23.50582 11863 ft 368 kts 176°
2026-05-03 21:15 38.12907 23.50300 11455 ft 364 kts 190°
2026-05-03 21:16 38.10414 23.49721 11031 ft 362 kts 191°
2026-05-03 21:16 38.07922 23.49124 10611 ft 359 kts 191°
2026-05-03 21:16 38.05456 23.48564 10389 ft 349 kts 190°
2026-05-03 21:16 38.03075 23.48054 10308 ft 335 kts 190°
2026-05-03 21:17 38.00823 23.47587 10236 ft 321 kts 189°
2026-05-03 21:17 37.99347 23.47284 10188 ft 313 kts 189°
2026-05-03 21:17 37.96514 23.46706 9892 ft 303 kts 189°
2026-05-03 21:17 37.94438 23.46281 9589 ft 300 kts 189°
2026-05-03 21:18 37.92370 23.45859 9255 ft 297 kts 189°
2026-05-03 21:18 37.90310 23.45437 8951 ft 293 kts 189°
2026-05-03 21:18 37.88294 23.45027 8648 ft 289 kts 189°
2026-05-03 21:18 37.86328 23.44627 8356 ft 285 kts 189°
2026-05-03 21:19 37.84372 23.44229 8064 ft 280 kts 189°
2026-05-03 21:19 37.82429 23.43831 7778 ft 276 kts 188°
2026-05-03 21:19 37.80551 23.43451 7502 ft 271 kts 187°
2026-05-03 21:19 37.78681 23.43538 7176 ft 264 kts 158°
2026-05-03 21:20 37.77175 23.44687 7002 ft 242 kts 129°
2026-05-03 21:20 37.76307 23.46412 6689 ft 221 kts 101°
2026-05-03 21:20 37.76045 23.48228 6456 ft 203 kts 86°
2026-05-03 21:20 37.75944 23.49983 6231 ft 192 kts 84°
2026-05-03 21:21 37.75854 23.51615 6056 ft 176 kts 83°
2026-05-03 21:21 37.75762 23.53096 5818 ft 161 kts 84°
2026-05-03 21:21 37.75670 23.54507 5648 ft 159 kts 84°
2026-05-03 21:21 37.75574 23.55901 5471 ft 159 kts 84°
2026-05-03 21:22 37.75471 23.57306 5287 ft 158 kts 85°
2026-05-03 21:22 37.75364 23.58682 5041 ft 154 kts 85°
2026-05-03 21:22 37.75258 23.60024 4568 ft 155 kts 85°
2026-05-03 21:22 37.75152 23.61396 4069 ft 156 kts 85°
2026-05-03 21:23 37.75046 23.62741 3697 ft 153 kts 86°
2026-05-03 21:23 37.74937 23.64094 3594 ft 156 kts 86°
2026-05-03 21:23 37.74826 23.65475 3466 ft 155 kts 86°
2026-05-03 21:23 37.74715 23.66801 3209 ft 151 kts 86°
2026-05-03 21:24 37.74609 23.68143 2720 ft 152 kts 87°
2026-05-03 21:24 37.74505 23.69476 2493 ft 155 kts 88°
2026-05-03 21:24 37.74445 23.70858 2492 ft 154 kts 82°
2026-05-03 21:24 37.74497 23.72200 2480 ft 152 kts 76°
2026-05-03 21:25 37.74639 23.73526 2479 ft 152 kts 74°
2026-05-03 21:25 37.74795 23.74873 2476 ft 152 kts 73°
2026-05-03 21:25 37.75204 23.76057 2466 ft 145 kts 39°
2026-05-03 21:25 37.76031 23.76848 2505 ft 151 kts 28°
2026-05-03 21:26 37.76933 23.77593 2486 ft 154 kts 28°
2026-05-03 21:26 37.77827 23.78348 2475 ft 154 kts 29°
2026-05-03 21:26 37.78719 23.79128 2474 ft 154 kts 30°
2026-05-03 21:26 37.79598 23.79928 2470 ft 154 kts 31°
2026-05-03 21:27 37.80466 23.80739 2439 ft 154 kts 31°
2026-05-03 21:27 37.81334 23.81560 2384 ft 154 kts 32°
2026-05-03 21:27 37.82200 23.82388 2264 ft 153 kts 32°
2026-05-03 21:27 37.83054 23.83208 2152 ft 153 kts 32°
2026-05-03 21:28 37.83911 23.84031 2039 ft 153 kts 32°
2026-05-03 21:28 37.84765 23.84851 1939 ft 153 kts 32°
2026-05-03 21:28 37.85619 23.85669 1867 ft 152 kts 32°
2026-05-03 21:28 37.86478 23.86490 1718 ft 152 kts 32°
2026-05-03 21:29 37.87330 23.87303 1518 ft 152 kts 32°
2026-05-03 21:29 37.88181 23.88115 1312 ft 151 kts 32°
2026-05-03 21:29 37.89021 23.88914 1108 ft 151 kts 32°
2026-05-03 21:29 37.89867 23.89719 909 ft 150 kts 32°
2026-05-03 21:30 37.90715 23.90526 701 ft 150 kts 33°
2026-05-03 21:30 37.91564 23.91329 505 ft 149 kts 33°
2026-05-03 21:30 37.92389 23.92133 309 ft 148 kts 34°
2026-05-03 21:30 37.93161 23.92837 257 ft 116 kts 38°
2026-05-03 21:31 37.93671 23.93323 261 ft 65 kts 36°
2026-05-03 21:31 37.93892 23.93545 265 ft 14 kts 37°
2026-05-03 21:31 37.93990 23.93640 267 ft 26 kts 38°
2026-05-03 21:31 37.94136 23.93774 268 ft 25 kts 34°
2026-05-03 21:32 37.94242 23.93942 270 ft 23 kts 70°
2026-05-03 21:32 37.94299 23.94132 273 ft 22 kts 68°
2026-05-03 21:32 37.94379 23.94288 276 ft 20 kts 49°
2026-05-03 21:32 37.94482 23.94404 280 ft 18 kts 33°
2026-05-03 21:33 37.94588 23.94489 284 ft 17 kts 33°
2026-05-03 21:33 37.94671 23.94593 286 ft 16 kts 84°
2026-05-03 21:33 37.94626 23.94717 289 ft 15 kts 123°
2026-05-03 21:33 37.94568 23.94824 292 ft 14 kts 126°
2026-05-03 21:34 37.94504 23.94927 293 ft 15 kts 128°
2026-05-03 21:34 37.94437 23.95038 294 ft 15 kts 126°
2026-05-03 21:34 37.94369 23.95154 294 ft 16 kts 127°
2026-05-03 21:34 37.94293 23.95280 292 ft 19 kts 128°
2026-05-03 21:35 37.94206 23.95424 287 ft 21 kts 129°
2026-05-03 21:35 37.94073 23.95481 283 ft 20 kts 161°
2026-05-03 21:35 37.93950 23.95427 282 ft 18 kts 219°
2026-05-03 21:35 37.93849 23.95328 282 ft 18 kts 217°
2026-05-03 21:36 37.93751 23.95236 283 ft 16 kts 217°
2026-05-03 21:36 37.93663 23.95154 285 ft 14 kts 216°
2026-05-03 21:36 37.93600 23.95075 288 ft 10 kts 264°
2026-05-03 21:36 37.93602 23.95008 292 ft 4 kts 267°
2026-05-03 21:37 37.93591 23.94975 293 ft 4 kts 235°
2026-05-03 21:37 37.93511 23.94917 294 ft 10 kts 210°
2026-05-03 21:37 37.93469 23.94854 295 ft 10 kts 231°
2026-05-03 21:37 37.93404 23.94788 295 ft 12 kts 221°
2026-05-03 21:38 37.93333 23.94717 294 ft 8 kts 218°
2026-05-03 21:38 37.93291 23.94662 292 ft 4 kts 268°
2026-05-03 21:38 37.93301 23.94626 291 ft 4 kts 301°
2026-05-03 21:38 37.93321 23.94592 291 ft 3 kts 306°
2026-05-03 21:39 37.93325 23.94584 290 ft 0 kts 306°
2026-05-03 21:39 37.93328 23.94579 290 ft 0 kts 307°
2026-05-03 21:39 37.93329 23.94578 290 ft 0 kts 307°